Probability
97 97 97 97 0 0 0 0 0 0 0 0 0 0 0 0 0 0 3 0 0 0 26 100 100 100 100 100 100 100 100 100 100 94 94 97 94 97 90 84 65 45 48 52 74 84 87 97 100
97 97 94 13 0 0 0 0 0 0 0 0 0 0 0 0 0 0 0 0 0 0 32 87 100 100 100 100 100 100 100 97 100 97 97 94 97 94 97 97 77 68 55 65 74 84 90 97 100
97 90 52 0 0 0 0 0 0 0 0 0 0 0 0 0 0 0 0 0 0 3 23 94 100 100 100 100 100 100 100 100 100 100 97 97 97 94 97 100 90 74 61 65 87 87 94 94 97
90 81 3 0 0 0 0 0 0 0 0 0 0 0 0 0 0 0 0 0 0 3 29 97 100 100 100 100 97 100 100 100 100 100 94 97 94 97 94 90 87 71 45 71 81 90 87 94 87
61 10 0 0 0 0 0 0 0 0 0 0 0 0 0 0 0 0 3 0 0 3 19 87 100 100 100 100 100 100 100 100 100 100 100 100 97 97 90 94 74 35 13 48 71 87 84 90 90
48 0 0 0 0 0 0 0 0 0 0 0 0 0 0 0 0 0 0 0 0 0 13 81 100 100 100 100 100 100 100 100 100 100 100 100 97 97 97 74 39 10 6 19 68 68 84 90 94
42 0 0 0 0 0 0 0 0 0 0 0 0 0 0 0 3 0 0 0 0 0 3 74 94 100 100 100 100 100 100 100 100 100 100 97 97 97 87 42 16 0 6 39 52 74 94 87 84
45 0 0 0 0 0 0 0 0 0 0 0 0 0 0 0 3 0 0 0 0 0 3 32 61 77 90 97 100 100 100 100 100 100 97 97 97 84 58 16 3 6 19 61 84 100 97 90 68
23 0 0 0 0 0 0 0 0 0 0 0 0 0 0 0 0 0 0 0 6 3 3 10 29 52 77 94 100 100 100 100 100 100 94 84 42 10 10 0 16 32 45 74 90 84 77 48 39
74 0 0 0 0 0 0 0 0 0 0 0 0 0 0 3 0 0 3 0 6 6 6 6 6 16 48 61 100 100 100 100 84 65 23 3 3 0 0 3 39 48 58 71 77 52 10 0 0
42 0 0 0 0 0 0 0 0 0 0 0 0 0 0 0 0 3 0 0 0 3 6 3 3 10 26 77 90 94 100 100 29 6 6 0 0 0 0 6 19 35 16 0 6 10 0 0 0
23 0 0 0 0 0 0 0 0 0 0 0 0 0 0 3 3 16 6 0 0 0 0 0 0 0 3 26 45 42 52 61 35 3 0 0 0 0 0 3 0 3 0 0 0 0 0 0 0
3 0 0 0 0 0 0 0 0 0 0 0 0 0 0 0 0 0 0 0 0 0 3 0 0 0 0 6 23 26 26 23 10 16 0 0 0 0 0 0 3 0 0 0 0 0 0 0 0
0 0 0 0 0 0 0 0 0 0 0 0 0 0 0 0 0 0 0 0 0 0 13 23 6 3 0 3 19 10 6 23 3 16 0 0 0 0 0 0 3 0 0 0 0 0 0 0 0
0 0 0 0 0 0 0 0 0 0 0 0 0 0 0 0 0 0 0 0 0 3 13 35 39 16 13 6 10 10 10 6 10 19 0 0 0 0 0 0 0 0 0 0 0 0 0 0 0
0 0 0 0 0 0 0 0 0 0 0 0 0 0 0 0 0 0 0 0 0 35 42 58 77 65 65 32 42 26 10 3 10 13 3 0 0 0 0 0 0 0 0 0 3 6 0 0 0
0 0 0 0 0 0 0 0 0 0 0 0 0 0 0 0 0 0 0 0 16 68 84 90 97 97 87 74 87 48 13 26 16 10 6 0 0 0 0 0 0 0 3 3 0 10 3 3 0
0 0 0 0 0 0 0 0 0 0 0 0 0 0 0 0 0 0 3 16 35 55 90 97 97 100 97 97 81 84 52 45 32 16 10 0 0 0 0 3 0 0 6 23 3 3 3 6 6
0 0 0 0 0 0 0 0 0 0 0 0 0 0 0 0 0 0 6 16 23 48 65 77 94 100 100 97 90 84 84 84 68 55 13 6 0 3 6 0 0 16 35 32 6 16 6 6 0
0 0 0 0 0 0 0 0 0 0 0 0 0 0 0 0 0 0 6 10 16 48 61 68 90 90 100 100 97 81 90 81 81 77 45 19 23 13 3 19 26 61 77 71 39 29 29 3 0
0 0 0 0 0 0 0 0 0 0 0 0 0 0 0 0 0 0 3 10 19 42 55 52 90 97 100 100 97 84 84 90 87 81 74 55 48 35 52 23 26 52 55 77 74 65 39 13 3
0 0 0 0 0 0 0 0 0 0 0 0 0 0 0 0 0 0 0 3 13 35 52 71 87 94 100 100 97 97 94 94 97 87 74 58 61 61 45 35 35 42 39 52 65 48 48 48 32
0 0 0 0 0 0 0 0 0 0 0 0 0 0 0 0 0 0 0 0 13 35 52 71 71 77 87 87 97 97 97 97 94 77 68 58 61 68 77 61 42 19 23 23 39 42 23 35 39
0 0 0 0 0 0 0 0 0 0 0 0 0 0 0 0 0 0 0 0 13 35 61 68 77 74 68 81 87 90 90 94 97 90 81 81 81 74 48 55 45 19 23 16 16 16 19 26 26
0 0 0 0 0 0 0 0 0 0 0 0 0 0 0 0 0 0 0 0 23 48 77 77 81 81 68 71 68 74 84 81 81 87 94 87 84 71 68 55 55 29 13 0 6 6 13 10 6
0 0 0 0 0 0 0 0 0 0 0 0 0 0 0 3 0 0 0 0 23 61 87 94 94 87 74 68 58 52 58 87 81 81 87 87 84 77 74 58 45 32 13 0 0 3 6 0 0
0 0 0 0 0 0 0 0 0 0 0 0 0 0 0 0 3 0 0 3 42 74 87 94 94 94 84 77 68 55 45 68 81 71 71 71 65 55 58 58 58 39 23 6 0 6 3 0 0
0 0 0 0 0 0 0 0 0 0 0 0 0 0 0 0 3 3 6 10 39 77 94 97 97 97 90 81 81 71 81 81 77 65 71 61 55 48 58 58 48 29 32 26 10 0 0 3 3
0 0 0 0 0 0 0 0 0 0 0 0 0 0 0 0 0 3 3 10 32 58 90 100 100 97 94 84 81 81 77 77 77 77 71 65 65 68 55 45 29 23 23 6 6 3 6 0 0
0 0 0 0 0 0 0 0 0 0 0 0 0 0 0 0 0 0 3 6 19 48 84 97 100 100 100 97 90 87 81 87 81 61 61 58 61 58 42 29 19 26 23 13 6 6 3 3 0
Height
5905 5905 5906 5907 5907 5907 5906 5906 5904 5904 5903 5903 5902 5902 5902 5902 5902 5904 5901 5899 5899 5899 5898 5896 5895 5894 5892 5890 5888 5886 5885 5883 5882 5881 5880 5879 5878 5877 5875 5874 5873 5871 5869 5869 5869 5871 5874 5877 5880
5905 5905 5907 5907 5907 5907 5907 5905 5904 5903 5902 5902 5901 5901 5901 5900 5900 5899 5898 5898 5898 5898 5897 5896 5895 5893 5891 5890 5888 5886 5884 5883 5881 5880 5879 5878 5877 5876 5875 5874 5873 5871 5870 5870 5870 5871 5873 5875 5878
5905 5906 5907 5907 5907 5907 5907 5905 5904 5902 5901 5900 5900 5899 5899 5898 5898 5897 5897 5896 5896 5896 5896 5895 5894 5892 5891 5889 5887 5885 5883 5882 5880 5879 5878 5877 5876 5876 5875 5873 5873 5872 5871 5872 5872 5872 5873 5875 5877
5905 5907 5907 5908 5907 5907 5906 5905 5903 5901 5900 5899 5899 5898 5897 5897 5896 5895 5895 5895 5895 5895 5895 5894 5893 5891 5890 5888 5886 5884 5882 5880 5879 5878 5876 5875 5875 5874 5874 5873 5872 5871 5872 5872 5873 5873 5874 5875 5877
5905 5906 5907 5907 5907 5907 5906 5904 5903 5901 5899 5898 5897 5896 5895 5895 5894 5894 5894 5894 5894 5894 5894 5893 5892 5891 5889 5887 5885 5883 5881 5879 5877 5876 5875 5874 5873 5873 5873 5872 5871 5871 5871 5872 5873 5874 5875 5876 5877
5905 5906 5907 5907 5907 5907 5906 5904 5903 5901 5899 5898 5896 5895 5894 5893 5892 5892 5892 5893 5893 5893 5893 5892 5891 5890 5888 5886 5884 5882 5879 5877 5876 5874 5873 5872 5872 5871 5871 5871 5870 5870 5870 5871 5872 5873 5874 5876 5877
5905 5905 5905 5906 5906 5906 5905 5903 5902 5901 5899 5897 5896 5894 5892 5891 5891 5891 5891 5891 5892 5892 5892 5891 5890 5888 5887 5885 5883 5881 5878 5876 5874 5872 5871 5870 5870 5870 5870 5869 5869 5868 5869 5870 5870 5872 5873 5875 5877
5903 5905 5904 5904 5904 5904 5903 5902 5901 5900 5898 5896 5895 5893 5892 5890 5889 5889 5889 5890 5890 5890 5890 5890 5888 5887 5885 5884 5881 5879 5877 5874 5872 5871 5869 5868 5868 5867 5867 5867 5867 5867 5867 5868 5869 5870 5872 5873 5875
5901 5903 5902 5903 5903 5903 5902 5901 5900 5898 5897 5895 5894 5892 5891 5890 5889 5888 5889 5889 5889 5889 5889 5888 5887 5885 5884 5882 5880 5878 5875 5873 5871 5869 5867 5866 5866 5865 5865 5865 5865 5865 5865 5866 5867 5868 5870 5871 5873
5899 5900 5900 5901 5901 5900 5900 5899 5898 5897 5895 5894 5893 5891 5890 5889 5889 5888 5888 5888 5888 5888 5887 5887 5886 5884 5882 5880 5878 5876 5874 5871 5869 5867 5865 5864 5864 5863 5863 5863 5863 5863 5863 5864 5865 5866 5867 5869 5870
5896 5897 5897 5897 5898 5897 5897 5897 5896 5895 5894 5893 5891 5890 5889 5888 5888 5888 5887 5887 5887 5886 5886 5885 5884 5883 5881 5879 5877 5874 5872 5870 5867 5865 5863 5862 5862 5861 5861 5861 5861 5861 5861 5862 5863 5864 5865 5866 5867
5893 5893 5894 5894 5895 5895 5895 5894 5894 5893 5893 5891 5890 5888 5887 5887 5886 5886 5886 5885 5885 5884 5883 5883 5882 5880 5879 5877 5875 5873 5870 5868 5866 5863 5861 5860 5859 5859 5859 5858 5859 5859 5860 5861 5861 5862 5863 5864 5865
5889 5890 5890 5891 5891 5891 5892 5892 5891 5890 5890 5889 5888 5886 5885 5884 5884 5883 5883 5882 5882 5881 5881 5880 5879 5878 5876 5874 5872 5870 5868 5866 5864 5862 5860 5858 5857 5857 5857 5857 5857 5858 5858 5859 5860 5860 5861 5862 5862
5886 5886 5887 5887 5887 5888 5888 5888 5888 5887 5887 5885 5884 5884 5883 5882 5881 5880 5879 5879 5878 5878 5878 5877 5876 5875 5873 5871 5869 5867 5865 5864 5862 5860 5857 5856 5855 5854 5854 5855 5855 5856 5857 5857 5858 5859 5859 5860 5860
5881 5882 5883 5883 5883 5884 5885 5885 5884 5883 5883 5882 5881 5880 5879 5878 5877 5876 5876 5875 5875 5874 5874 5873 5872 5871 5870 5868 5866 5864 5862 5861 5859 5857 5855 5853 5852 5851 5852 5852 5853 5854 5855 5856 5856 5857 5857 5858 5858
5876 5877 5878 5879 5879 5879 5882 5882 5880 5879 5879 5878 5877 5876 5875 5874 5874 5873 5872 5871 5871 5870 5870 5869 5868 5867 5866 5864 5862 5861 5859 5857 5856 5854 5853 5851 5850 5849 5849 5850 5851 5851 5852 5854 5855 5855 5856 5856 5857
5871 5872 5873 5873 5873 5874 5876 5877 5875 5874 5874 5873 5873 5872 5871 5870 5869 5869 5868 5867 5867 5866 5866 5865 5864 5863 5862 5860 5859 5857 5856 5854 5853 5851 5850 5848 5847 5846 5846 5847 5848 5849 5850 5851 5852 5853 5854 5855 5855
5865 5865 5866 5866 5866 5867 5868 5869 5869 5867 5868 5868 5867 5867 5866 5865 5865 5864 5864 5863 5863 5862 5861 5860 5859 5858 5857 5856 5855 5853 5852 5850 5849 5848 5847 5845 5844 5843 5843 5844 5844 5845 5847 5848 5850 5851 5852 5852 5853
5857 5858 5859 5859 5859 5860 5860 5861 5862 5861 5861 5861 5861 5861 5861 5861 5860 5860 5859 5859 5858 5858 5856 5856 5855 5854 5853 5852 5850 5849 5848 5847 5845 5844 5843 5842 5841 5840 5840 5841 5841 5842 5843 5845 5846 5848 5849 5850 5851
5849 5850 5851 5851 5851 5852 5853 5853 5854 5854 5854 5854 5855 5855 5856 5856 5855 5855 5855 5854 5854 5853 5852 5851 5850 5849 5848 5847 5846 5844 5844 5842 5841 5840 5839 5838 5837 5837 5837 5837 5838 5838 5839 5841 5842 5844 5846 5847 5849
5841 5842 5842 5843 5843 5844 5845 5846 5847 5846 5846 5847 5848 5849 5849 5850 5850 5850 5849 5849 5849 5848 5847 5846 5844 5843 5842 5841 5840 5839 5838 5838 5837 5836 5835 5834 5833 5833 5833 5834 5834 5834 5835 5836 5838 5840 5842 5844 5845
5833 5833 5833 5834 5835 5836 5838 5838 5840 5839 5840 5841 5842 5843 5843 5844 5844 5844 5844 5844 5843 5842 5841 5840 5839 5838 5837 5835 5835 5834 5833 5832 5831 5830 5829 5829 5828 5828 5828 5828 5828 5829 5830 5831 5833 5835 5837 5840 5841
5825 5825 5826 5826 5827 5828 5829 5830 5833 5832 5833 5834 5835 5836 5837 5838 5838 5838 5838 5838 5837 5837 5835 5834 5833 5832 5831 5829 5828 5827 5826 5825 5824 5824 5823 5822 5822 5822 5822 5823 5823 5823 5824 5825 5827 5829 5832 5834 5837
5817 5818 5818 5819 5819 5821 5821 5822 5825 5825 5826 5827 5828 5829 5830 5831 5832 5832 5832 5832 5831 5831 5830 5828 5827 5826 5824 5823 5821 5820 5819 5818 5817 5817 5816 5816 5816 5815 5816 5816 5816 5817 5818 5819 5821 5823 5825 5828 5831
5811 5812 5813 5813 5813 5814 5814 5815 5818 5817 5819 5820 5821 5823 5824 5825 5825 5826 5826 5826 5825 5825 5824 5823 5821 5820 5818 5817 5815 5813 5812 5811 5810 5809 5809 5809 5809 5809 5809 5810 5810 5811 5812 5813 5814 5816 5819 5822 5825
5804 5806 5808 5809 5809 5808 5808 5810 5812 5812 5812 5814 5815 5817 5818 5819 5819 5819 5819 5819 5819 5818 5818 5817 5816 5814 5812 5811 5808 5807 5805 5804 5803 5802 5801 5802 5802 5803 5804 5804 5804 5805 5805 5806 5807 5808 5811 5814 5818
5798 5799 5800 5802 5802 5803 5804 5805 5807 5807 5807 5809 5810 5811 5812 5813 5813 5813 5813 5813 5813 5812 5812 5811 5810 5808 5806 5804 5802 5801 5799 5798 5797 5796 5795 5795 5796 5797 5797 5798 5798 5798 5799 5800 5800 5801 5803 5807 5811
5792 5793 5794 5795 5797 5798 5800 5800 5802 5802 5803 5804 5805 5806 5806 5807 5807 5807 5807 5807 5807 5806 5806 5805 5804 5802 5800 5798 5797 5795 5794 5793 5792 5791 5790 5790 5791 5791 5792 5792 5792 5793 5793 5794 5794 5795 5796 5799 5803
5785 5786 5787 5789 5791 5793 5795 5797 5795 5797 5798 5799 5799 5800 5800 5801 5801 5801 5801 5801 5801 5800 5800 5799 5798 5796 5795 5793 5791 5790 5788 5788 5787 5786 5786 5786 5786 5786 5786 5787 5787 5787 5788 5788 5788 5789 5790 5792 5795
5777 5779 5781 5783 5784 5785 5787 5792 5789 5790 5791 5792 5793 5794 5794 5795 5795 5795 5795 5795 5795 5794 5794 5793 5791 5790 5788 5787 5785 5784 5783 5782 5782 5782 5781 5781 5781 5781 5781 5781 5782 5782 5782 5783 5783 5783 5784 5786 5788
Wind_Speed
4 4 5 6 7 8 8 8 7 5 3 1 3 5 6 6 7 6 5 3 2 1 2 5 6 7 8 9 9 9 9 8 8 8 8 8 7 6 6 7 7 6 4 5 12 17 20 21 19
6 6 5 6 6 7 7 8 7 6 5 2 2 3 5 6 6 5 4 4 4 2 1 3 6 7 9 10 10 10 10 8 8 9 9 8 7 6 6 6 5 4 3 1 7 12 15 18 19
7 7 7 6 6 6 7 7 7 7 6 4 3 3 4 5 5 5 5 5 5 4 2 3 5 7 9 10 10 10 10 9 9 10 10 9 7 6 6 5 4 3 2 2 4 7 9 12 16
8 8 7 7 6 6 7 8 8 9 8 7 5 4 5 5 5 5 5 5 5 4 3 4 6 7 9 10 10 10 10 10 9 10 10 9 8 7 5 5 5 5 4 3 3 5 7 9 11
8 8 8 7 6 6 7 8 10 11 10 10 8 6 6 5 5 5 5 5 5 4 2 4 6 8 9 10 11 11 11 10 10 10 10 9 8 7 6 6 6 6 7 6 6 6 7 8 9
8 8 6 4 3 4 6 8 9 10 10 10 9 8 7 6 5 5 5 5 5 3 2 5 8 10 11 12 12 12 12 11 11 11 10 9 8 7 7 8 8 8 8 8 9 9 9 9 9
8 7 4 1 1 3 6 8 9 10 11 11 10 9 8 6 5 5 5 4 4 3 2 5 8 11 12 13 12 13 13 12 12 12 10 9 8 7 8 9 10 10 9 9 10 11 11 10 10
7 6 4 3 3 4 6 8 9 10 11 12 11 11 9 7 5 4 4 4 4 3 3 5 8 11 12 13 12 13 13 13 13 13 11 9 8 8 9 10 11 11 10 10 11 12 12 12 12
9 7 6 6 6 6 7 9 10 10 10 11 12 11 10 7 5 2 2 3 3 3 4 6 8 10 12 13 13 13 13 13 14 14 12 11 9 9 9 10 11 11 11 11 11 11 12 13 13
11 9 9 8 8 9 9 10 10 10 10 11 12 12 9 7 4 2 2 3 3 4 6 7 9 10 12 13 13 13 12 13 14 14 13 11 10 9 10 11 11 11 11 11 11 11 12 13 14
13 12 11 11 11 11 11 11 12 12 11 11 12 12 10 7 5 4 4 5 6 7 8 9 10 11 11 13 13 13 13 13 14 14 13 11 10 9 11 11 11 11 11 11 11 11 11 12 13
16 15 14 13 13 13 13 13 13 13 13 12 12 13 12 10 8 8 8 9 9 10 11 11 11 11 11 13 13 13 13 13 14 14 13 11 9 9 11 11 11 11 11 11 11 11 11 11 12
19 17 17 16 16 16 15 15 15 16 15 14 14 14 13 12 11 11 11 12 12 13 13 13 13 12 12 13 13 13 14 14 14 14 13 11 10 9 11 11 11 11 11 11 11 11 11 11 12
21 21 20 20 19 19 18 17 18 18 17 17 16 15 15 14 14 13 13 14 15 15 15 15 15 14 13 13 13 13 13 13 14 13 12 11 10 10 11 12 12 12 11 12 12 11 11 11 11
24 24 24 24 23 22 22 20 20 21 19 18 18 17 18 17 16 16 16 16 16 17 17 17 17 16 15 14 14 14 13 13 13 13 13 12 11 11 12 13 13 13 12 12 12 12 11 11 11
28 28 27 27 27 26 25 22 24 23 22 21 20 19 19 20 19 18 18 18 18 18 18 18 18 18 17 15 14 14 13 13 13 14 14 13 12 12 13 14 15 15 14 13 13 12 11 11 11
31 31 30 31 30 29 28 26 26 26 24 23 22 21 21 21 21 20 20 20 20 20 20 20 19 20 18 17 17 15 15 14 14 14 14 13 13 13 14 15 16 16 16 15 14 13 12 12 11
35 34 33 34 33 32 31 29 28 28 27 25 24 23 22 22 23 22 21 21 21 21 21 21 21 21 20 19 18 17 17 16 15 14 14 14 13 14 15 16 18 18 17 17 16 15 14 13 12
39 37 36 36 35 34 31 29 28 28 28 27 26 24 23 23 23 22 22 22 22 22 22 22 23 23 22 21 20 19 18 18 17 16 16 16 15 15 16 17 18 20 20 19 18 17 16 15 13
40 39 38 37 36 35 32 29 28 28 27 27 26 25 24 23 23 23 23 22 22 22 23 23 24 24 24 23 22 21 20 20 20 19 18 18 16 16 16 18 20 21 22 22 21 20 19 18 16
39 39 38 37 35 34 32 29 27 27 26 25 25 25 24 23 23 24 24 23 23 23 24 24 24 25 25 25 23 23 22 23 22 22 21 21 20 19 19 19 21 23 24 24 24 23 22 21 19
37 37 36 35 33 32 31 30 26 25 25 25 25 24 24 23 23 24 25 24 24 24 25 25 25 26 26 26 25 24 24 25 25 25 25 24 23 23 22 22 21 22 24 25 26 26 25 24 22
34 34 34 34 33 32 31 31 27 25 24 25 25 24 23 23 24 25 25 25 25 26 26 26 26 26 26 26 26 26 26 27 27 27 27 27 27 26 24 24 24 24 24 25 27 28 27 27 26
29 29 29 30 30 30 29 28 26 25 25 25 24 24 24 23 23 24 25 26 26 27 26 26 26 26 26 26 26 27 28 28 28 29 28 28 29 28 26 25 26 26 25 25 27 29 29 29 29
27 27 27 27 27 27 25 24 23 23 22 22 22 23 23 23 23 24 25 26 27 27 26 25 25 25 25 26 26 27 27 28 28 29 29 29 29 29 27 27 26 27 26 26 27 29 31 30 32
27 26 27 25 24 24 23 21 20 20 19 19 18 19 20 21 23 23 24 26 26 26 26 25 24 24 24 24 25 24 25 25 25 25 26 27 27 27 27 26 26 26 27 27 27 28 31 30 33
26 26 26 26 24 23 22 21 19 16 16 16 16 17 19 21 22 23 24 25 26 26 26 24 24 24 23 24 23 23 22 22 22 22 22 23 24 25 25 25 25 25 25 25 25 26 30 33 33
26 26 25 25 24 24 24 23 21 18 17 16 16 17 19 21 22 23 23 24 25 24 24 23 23 23 23 23 23 23 22 21 20 20 20 20 21 22 22 23 23 24 24 25 26 26 29 32 34
26 26 26 27 27 25 25 24 22 20 17 16 16 17 19 20 21 21 21 22 22 22 23 23 23 23 23 24 24 23 22 21 20 19 18 18 18 19 20 21 22 22 23 23 24 25 26 28 32
28 27 27 27 26 25 25 24 23 21 19 19 20 20 20 21 21 21 21 21 22 22 23 23 23 24 24 24 24 23 22 22 20 19 19 18 18 19 19 20 20 21 22 22 21 23 24 25 29
Wind_Direction
121 112 99 82 58 43 28 20 19 12 3 276 231 238 253 273 282 285 279 245 229 238 28 22 14 12 8 3 358 352 339 324 313 314 319 323 324 320 318 314 319 323 322 235 203 196 198 195 194
120 116 112 90 60 44 27 16 8 6 2 345 270 252 261 273 279 276 259 237 226 225 317 356 358 1 360 355 353 351 344 329 315 310 312 319 322 318 316 313 318 322 340 158 189 194 195 197 195
122 114 110 92 71 46 28 14 4 358 356 350 328 287 272 272 269 264 246 228 221 228 267 313 335 347 350 347 344 346 345 334 319 312 311 313 314 313 308 303 299 291 278 181 178 187 186 189 190
123 112 105 93 79 57 38 23 9 356 352 351 343 318 291 273 266 259 236 218 217 226 260 307 325 338 344 342 340 341 342 336 323 316 313 309 306 303 300 293 282 266 247 222 189 182 181 176 179
128 117 105 96 79 60 47 32 18 5 357 355 350 333 311 288 268 253 229 213 210 217 271 331 345 347 347 345 340 337 337 334 325 319 315 308 301 292 286 280 273 260 246 232 214 196 186 182 179
135 128 116 102 70 47 36 26 19 11 5 2 358 346 325 303 277 256 234 220 208 212 284 335 347 351 349 346 340 335 332 331 327 323 318 309 297 285 276 272 269 259 247 234 221 212 203 194 187
151 145 147 146 12 9 11 7 6 7 8 8 6 360 344 324 293 265 244 228 218 222 287 327 339 345 347 344 341 335 332 331 329 324 319 311 295 279 270 268 267 261 251 238 227 220 214 206 200
180 181 202 246 293 330 347 350 350 353 2 6 7 4 356 342 318 280 247 224 214 228 289 321 332 340 344 344 343 337 331 330 330 326 320 310 291 274 265 264 265 262 253 240 230 225 221 216 211
209 218 236 259 283 308 329 338 337 339 346 359 3 0 358 355 344 308 248 217 215 246 297 319 330 336 340 341 343 338 331 328 328 327 320 310 294 273 261 261 263 261 253 241 232 229 227 223 219
226 236 250 266 285 302 317 328 332 331 335 346 353 353 351 351 345 323 264 235 247 276 303 318 323 329 337 341 343 340 331 327 325 323 318 309 294 273 259 258 261 259 251 240 231 228 229 227 225
234 245 255 267 280 293 307 315 321 324 324 330 337 341 339 330 317 296 276 272 278 288 299 310 318 324 334 340 341 338 332 326 321 318 314 306 291 270 256 254 257 255 247 238 229 226 228 228 226
239 246 255 265 275 284 294 303 312 316 317 316 320 324 326 319 305 292 283 281 283 289 296 302 311 319 329 334 337 336 331 325 318 313 310 303 289 267 252 249 252 250 243 235 229 225 226 228 228
241 247 255 262 269 277 284 293 301 305 309 308 305 309 312 310 304 297 291 287 286 288 290 293 299 308 318 326 331 334 332 322 314 310 304 299 286 266 249 244 247 246 241 236 230 227 227 229 231
244 249 254 260 265 272 279 286 292 295 300 301 297 296 299 301 299 294 291 290 289 288 289 289 293 301 310 320 325 328 327 319 308 306 300 296 285 266 248 241 242 243 240 234 231 229 229 231 234
247 251 255 259 265 269 275 280 284 287 293 293 292 290 289 290 290 289 288 289 290 288 288 289 291 297 304 311 317 319 318 312 302 299 295 291 282 266 249 240 238 238 237 233 233 232 230 232 234
250 253 257 261 265 269 272 276 278 281 285 286 285 285 284 282 284 285 286 290 291 289 289 289 291 296 299 304 307 308 306 302 292 290 290 285 277 264 249 240 236 236 235 233 231 230 228 229 232
252 256 259 263 265 270 272 273 275 275 277 278 278 278 278 278 279 281 285 288 290 289 289 289 289 293 295 297 299 299 295 294 284 283 282 276 272 263 252 241 236 235 235 233 228 226 226 227 232
254 256 259 263 266 270 272 272 271 270 270 271 272 271 272 274 277 280 282 286 288 288 288 287 288 290 291 292 292 291 289 286 279 276 276 270 267 263 256 244 236 234 234 233 229 226 225 225 228
256 258 261 263 266 270 273 272 268 268 266 264 263 263 266 269 274 277 281 284 286 286 286 286 287 288 288 288 289 287 284 281 276 273 272 266 263 265 258 247 239 236 234 233 232 229 226 223 225
257 260 261 263 265 269 271 273 270 266 264 260 259 259 261 265 270 275 279 282 283 284 284 286 286 287 287 286 286 285 281 275 272 270 269 265 261 261 260 253 244 239 236 235 234 232 229 225 224
257 260 261 264 266 269 270 268 266 264 261 257 256 256 257 263 268 274 277 280 282 283 284 287 287 287 287 286 285 284 280 277 272 267 266 263 260 259 258 257 253 244 238 237 235 232 230 227 225
258 258 260 263 265 267 267 265 263 260 259 257 256 255 256 261 267 272 276 279 280 283 285 287 288 288 288 287 285 283 279 275 271 264 263 262 260 257 256 257 257 252 244 240 238 233 231 228 226
260 260 261 262 262 264 265 264 259 256 256 256 254 254 256 260 266 271 275 278 280 283 287 289 289 290 290 289 286 283 279 275 271 265 262 261 260 258 257 258 258 256 252 247 243 237 232 229 226
259 259 260 260 262 262 260 261 259 256 255 254 254 255 257 260 264 270 274 277 280 285 288 290 291 291 290 289 286 283 279 276 272 267 263 259 260 258 256 257 257 255 255 252 248 241 235 230 226
258 256 258 261 259 259 257 256 258 258 257 256 255 256 257 260 264 268 273 276 280 285 289 291 291 291 290 289 287 285 281 278 274 269 264 260 258 258 257 257 258 257 256 255 252 247 239 233 227
253 254 257 261 263 262 259 257 259 262 262 260 258 258 259 262 265 269 273 276 280 285 289 291 290 291 291 291 290 288 284 280 275 269 264 259 257 256 256 257 258 259 259 258 259 251 243 239 232
257 255 257 259 260 262 264 264 264 267 268 267 263 261 261 264 268 273 276 279 282 286 288 288 290 292 293 292 292 290 286 281 276 269 264 259 256 254 255 256 258 259 260 259 258 257 246 240 236
255 255 256 257 260 262 262 263 268 269 269 268 267 263 262 265 270 274 277 280 283 284 284 285 288 292 293 293 292 290 285 281 275 269 264 259 255 254 254 254 256 257 260 260 256 255 249 245 238
256 253 252 254 257 260 264 268 270 272 269 265 261 259 261 265 269 272 276 279 280 281 283 286 289 292 294 293 291 287 283 279 274 270 266 262 258 255 254 253 255 255 257 258 255 253 251 246 240
255 252 248 249 252 255 259 264 268 268 265 261 260 259 260 265 270 273 275 275 277 279 282 287 290 293 295 293 288 283 280 276 273 270 268 265 262 259 256 256 256 254 255 256 257 254 250 247 241